Dewpoint
51 55 59 62 62 63 63 64 64 63 63 63 63 64 64 64 64 64 64 63 63 62 62 61 61 60 61 60 59 59 57 52
51 53 55 57 59 62 63 63 63 63 62 62 62 62 62 62 63 62 62 62 62 61 59 59 58 57 57 57 57 58 57 50
53 52 55 54 53 58 61 62 62 62 61 60 60 58 58 59 59 60 60 59 59 58 57 56 56 56 56 54 54 49 48 47
53 55 56 55 50 53 54 54 55 56 56 57 54 57 58 55 58 59 59 59 59 58 57 55 54 48 51 53 50 46 46 45
50 57 57 55 51 50 50 50 51 54 57 57 56 55 55 55 55 59 60 59 54 57 54 51 47 48 45 46 46 46 43 42
50 55 57 55 50 47 48 49 51 51 54 56 55 53 53 53 51 51 50 50 50 51 49 49 52 51 49 47 46 46 41 42
50 56 59 51 51 49 51 52 51 54 53 54 55 52 52 52 51 50 49 48 47 47 47 47 48 48 46 44 43 41 43 44
49 55 58 50 49 51 50 52 51 52 50 51 53 53 51 51 49 47 46 45 45 46 45 46 46 44 43 42 41 37 36 40
49 55 56 53 50 50 47 47 48 47 46 48 50 51 49 50 47 46 45 45 46 46 47 47 46 45 42 41 38 39 38 39
48 52 54 55 48 48 46 45 46 45 44 45 47 49 50 49 47 46 46 48 46 46 45 45 44 43 42 40 37 36 36 39
48 51 54 53 49 48 47 48 47 43 44 44 44 46 46 47 46 46 47 46 46 46 45 46 44 44 43 41 39 37 37 36
50 51 53 52 50 48 45 44 43 42 41 40 42 43 44 45 45 45 46 45 45 46 48 46 46 46 43 41 42 39 38 39
48 50 51 49 46 44 41 40 40 39 39 42 44 44 44 44 43 43 44 43 45 47 48 47 48 47 46 46 44 43 42 39
43 43 43 41 39 40 41 42 41 42 42 42 41 42 42 41 40 40 39 41 43 44 46 46 46 47 45 45 42 42 41 41
41 41 42 43 42 40 40 39 39 39 39 41 41 42 41 40 39 39 40 41 40 42 42 42 42 43 45 44 41 39 39 40
41 41 41 41 43 41 43 42 41 41 42 41 41 40 37 36 34 35 38 40 41 41 39 43 42 41 41 41 43 44 42 41
43 40 41 42 43 43 43 42 40 38 38 37 36 33 33 32 33 35 38 40 41 41 42 41 40 40 39 42 42 42 42 41
42 41 40 40 41 41 40 39 38 35 35 34 33 34 33 33 33 36 38 39 39 40 43 42 42 41 41 41 39 39 38 37
42 40 40 39 39 38 38 37 36 35 35 35 36 34 32 31 34 37 37 39 41 41 40 40 40 39 39 38 38 36 36 35
42 41 38 37 37 38 38 38 37 38 38 38 36 33 32 34 36 40 41 42 41 41 41 40 39 39 38 38 37 37 37 36
Wind_Speed
12 12 11 9 8 8 8 9 9 9 8 8 8 8 8 7 8 8 8 8 8 7 7 6 5 3 1 2 5 9 12 9
10 10 9 9 11 8 8 8 7 7 7 5 5 8 7 6 7 9 6 6 5 4 3 2 1 1 2 4 8 13 14 8
7 8 5 4 4 10 10 9 8 9 8 5 7 6 4 10 10 7 4 3 1 0 1 3 6 9 9 7 11 13 5 9
10 6 5 1 2 3 4 5 4 2 2 1 3 5 6 6 5 9 8 7 7 8 8 9 12 12 11 12 11 6 9 6
9 6 3 1 5 2 3 2 2 4 1 4 5 5 2 6 2 11 11 13 9 12 8 9 8 9 10 9 10 10 11 9
9 6 5 2 4 2 4 3 1 4 3 1 4 6 7 7 8 10 10 8 8 9 9 7 9 10 10 10 11 11 12 9
10 8 5 3 1 3 2 3 2 5 3 3 4 6 6 7 8 9 9 10 10 10 10 11 10 11 11 11 12 11 12 10
9 7 6 4 3 0 2 1 2 3 2 3 2 4 5 7 8 9 10 10 10 11 13 13 14 14 13 13 13 14 13 11
8 7 7 6 4 3 3 2 2 3 2 1 2 4 4 7 8 10 10 11 11 12 13 13 14 14 15 13 13 14 15 12
6 6 6 8 5 2 3 2 3 4 3 2 2 4 6 8 10 11 11 12 13 14 15 16 17 17 16 16 15 15 16 15
6 7 7 7 5 5 1 3 6 4 2 5 4 6 7 9 12 14 13 14 15 15 16 16 18 18 20 18 16 17 17 17
6 6 3 2 4 3 5 5 6 4 6 7 8 11 9 10 13 15 14 16 16 16 18 18 19 20 23 22 19 17 17 17
5 3 7 4 4 5 6 6 7 8 7 8 7 7 11 13 13 15 16 17 17 17 18 20 20 19 21 21 21 22 21 19
8 7 7 6 4 5 3 4 5 6 5 8 10 8 12 14 14 16 16 17 17 17 18 19 20 19 22 23 26 22 22 25
11 10 8 8 7 4 5 5 6 10 10 13 12 12 14 13 15 15 17 17 18 17 18 20 21 20 20 22 22 27 21 20
9 7 7 7 8 7 7 9 12 13 15 14 14 15 16 16 17 17 16 17 19 18 18 18 19 22 18 21 22 22 28 28
7 7 6 7 8 8 10 11 12 12 12 14 16 14 16 18 18 18 17 17 17 18 18 19 18 19 20 17 16 15 15 10
7 7 8 7 8 9 9 11 12 13 14 15 14 16 17 19 20 19 18 18 15 14 13 12 11 12 12 10 9 6 9 4
9 11 12 11 10 11 11 12 14 14 16 16 19 20 20 20 19 18 16 15 12 9 9 6 8 8 8 6 5 4 3 2
9 13 16 16 15 14 13 15 14 15 16 17 18 19 20 19 16 14 13 15 12 9 5 5 5 4 2 3 3 2 2 2
Wind_Direction
142 131 124 117 109 106 99 91 86 86 87 92 95 91 88 92 88 78 73 68 68 70 69 70 69 66 45 315 303 299 294 287
139 145 146 159 137 114 104 100 109 112 111 112 137 144 137 131 135 99 93 91 86 82 76 84 131 205 250 281 284 280 262 314
134 126 132 101 97 129 155 149 163 158 151 168 224 228 167 167 75 90 91 91 100 110 264 250 246 236 220 239 266 260 310 275
144 133 109 111 122 134 144 146 169 104 60 66 278 11 34 343 144 169 191 199 216 215 221 241 248 259 205 217 245 331 287 286
143 136 121 292 66 348 207 208 157 155 188 334 17 342 337 285 193 203 207 200 260 201 220 254 336 310 306 304 297 285 275 287
151 147 160 178 328 331 23 239 176 249 61 326 314 313 354 337 328 335 307 306 326 287 298 291 284 284 279 279 274 275 277 280
164 171 183 163 202 16 344 310 235 2 292 17 331 327 344 327 332 309 313 307 299 298 298 291 284 280 271 276 274 270 268 271
182 178 183 179 249 3 325 220 301 238 322 29 328 308 334 318 312 312 306 304 306 312 309 303 297 291 279 264 270 275 267 254
190 191 186 201 214 219 287 335 308 298 311 262 305 290 306 304 299 306 306 311 303 286 284 282 277 279 279 265 262 258 263 255
197 201 203 205 240 232 298 297 287 278 269 277 309 300 303 304 298 299 301 305 296 293 291 291 288 284 276 276 273 252 253 243
240 236 221 220 197 266 245 261 250 263 297 284 315 310 304 301 295 295 298 292 290 288 286 280 279 274 276 268 257 259 254 244
310 281 190 235 292 238 254 251 267 270 293 323 346 321 323 310 298 293 292 288 284 284 287 285 283 283 284 279 283 264 249 249
59 113 45 318 293 318 313 310 341 307 315 3 318 317 318 308 296 301 300 293 294 294 285 279 278 275 271 270 261 258 252 248
69 72 46 22 39 358 342 313 311 307 267 343 316 327 305 305 309 303 301 298 293 289 285 282 279 275 275 277 278 272 250 234
69 68 61 46 359 15 345 307 298 308 309 302 305 312 304 305 307 310 306 301 295 294 290 285 284 279 278 271 274 270 270 264
69 53 44 38 17 0 344 313 304 312 297 318 321 309 312 317 314 312 306 305 296 292 290 299 297 288 287 281 277 268 275 276
37 19 25 16 352 341 327 321 319 310 314 322 312 315 323 319 317 319 314 304 302 305 300 291 293 293 296 314 308 302 296 306
8 349 340 346 336 331 328 322 320 318 320 318 326 323 320 323 323 318 312 299 301 317 350 355 341 323 323 339 354 339 321 342
339 338 332 333 328 323 326 319 318 318 326 328 326 324 322 318 320 314 315 333 345 338 319 316 335 329 338 338 359 6 349 334
328 329 329 332 330 328 328 327 326 326 326 323 318 317 320 322 322 349 3 30 14 358 358 339 306 288 269 271 295 300 316 317